[[{"header":{"parameterUnit":"m.s-1","parameterCategory":1,"la1":30.2991,"la2":30.254,"lo1":-89.0895,"lo2":-89.0444,"dy":0.0017,"dx":0.0017,"nx":28,"ny":28,"refTime":"2025-03-03T09:00:00:Z","depth":0,"parameterNumber":2,"parameterNumberName":"U-component_of_WINDS"},"data":[0,0,0,0,0,0,0,0,0,0,0,0,0,0,0,0,0,0,0,0,0,0,0,0,0,0,0,0,0,0,0,0,0,0,0,0,0,0,0,0,0,0,0,0,0,0,0,0,0,0,0,0,0,0,0,0,0,0,-3.8792,-3.8792,0,-3.8735,-3.8734,-3.8734,-3.8684,-3.8683,-3.8682,-3.8682,-3.8622,-3.8621,-3.862,0,0,0,0,0,0,0,0,0,0,0,0,0,-3.8858,-3.8857,-3.8792,-3.8792,-3.8791,-3.8735,-3.8734,-3.8733,-3.8684,-3.8683,-3.8682,-3.8682,-3.8622,-3.8621,-3.8619,0,0,0,0,0,0,0,0,0,0,0,0,0,-3.8818,-3.8857,-3.8792,-3.8759,-3.8756,-3.8735,-3.8734,-3.8733,-3.8684,-3.8683,-3.8682,-3.8681,-3.8622,-3.8621,-3.8619,-3.8626,0,0,-3.8614,-3.8614,0,0,0,0,0,0,0,0,-3.882,-3.8816,-3.8765,-3.8762,-3.8758,-3.8716,-3.8735,-3.8697,-3.8684,-3.8711,-3.8682,-3.8681,-3.8654,-3.8649,-3.864,-3.8624,-3.8621,-3.8614,-3.8613,-3.8613,-3.8612,0,0,0,0,0,0,0,-3.8823,-3.8818,-3.8769,-3.8764,-3.876,-3.8747,-3.8741,-3.8728,-3.8688,-3.8709,-3.8705,-3.8699,-3.8651,-3.8642,-3.8639,-3.862,-3.8614,-3.8613,-3.8612,-3.8611,-3.8606,-3.8607,0,0,0,0,0,0,-3.8831,-3.882,-3.8771,-3.8768,-3.8788,-3.8747,-3.8739,-3.873,-3.8688,-3.8681,-3.87,-3.8697,-3.8645,-3.8641,-3.8636,-3.8641,-3.8613,-3.8611,-3.861,-3.8606,-3.8607,-3.8607,0,0,0,0,0,0,-3.8833,-3.8827,-3.8774,-3.8793,-3.8785,-3.8746,-3.8736,-3.8729,-3.872,-3.8681,-3.8673,-3.8698,-3.8644,-3.8639,-3.8629,-3.8638,-3.861,-3.8609,-3.8605,-3.8606,-3.8607,-3.8652,0,0,0,0,0,0,-3.8835,-3.8828,-3.883,-3.8794,-3.8784,-3.8768,-3.8737,-3.8729,-3.8717,-3.8713,-3.8677,-3.867,-3.8643,-3.8632,-3.8628,-3.8636,-3.8608,-3.8603,-3.8605,-3.8607,-3.8649,-3.8654,-3.8659,0,0,0,0,0,-3.8837,-3.8845,-3.8831,-3.8825,-3.8787,-3.8769,-3.8763,-3.8733,-3.8718,-3.872,-3.8695,-3.8671,-3.8639,-3.8632,-3.8626,-3.8634,-3.8603,-3.8605,-3.8606,-3.8647,-3.8653,-3.8659,0,0,0,0,0,0,-3.8883,-3.8839,-3.8823,-3.8819,-3.8798,-3.876,-3.8761,-3.874,-3.8722,-3.8719,-3.8681,-3.8673,-3.8668,-3.865,-3.8643,-3.8639,-3.8617,-3.8618,-3.865,-3.8656,-3.8661,-3.8664,-3.8606,0,0,0,0,0,-3.8893,-3.8882,-3.8845,-3.8845,-3.8835,-3.88,-3.8791,-3.877,-3.8746,-3.8737,-3.8711,-3.8689,-3.8673,-3.8664,-3.8648,-3.8647,-3.8638,-3.865,-3.8655,-3.8659,-3.866,-3.8658,-3.8662,-3.8614,-3.8614,-3.8614,0,0,-3.8912,-3.8887,-3.8883,-3.8853,-3.8834,-3.8824,-3.8793,-3.8783,-3.8775,-3.8735,-3.8724,-3.8705,-3.8678,-3.8673,-3.867,-3.8658,-3.8671,-3.8661,-3.8665,-3.8663,-3.866,-3.8665,-3.8669,-3.8615,-3.8615,-3.8614,0,0,-3.8942,-3.8923,-3.892,-3.8903,-3.8875,-3.8852,-3.8852,-3.8817,-3.8803,-3.8793,-3.8762,-3.8752,-3.8727,-3.8708,-3.8696,-3.8721,-3.8698,-3.8717,-3.8741,-3.874,-3.8743,-3.8747,-3.8755,-3.8758,-3.8718,-3.8718,-3.8718,0,-3.897,-3.8953,-3.8922,-3.8914,-3.8902,-3.8867,-3.8864,-3.8848,-3.8816,-3.8808,-3.8796,-3.8764,-3.8743,-3.8733,-3.874,-3.8731,-3.8729,-3.872,-3.8746,-3.8748,-3.8751,-3.8758,-3.8761,-3.8721,-3.872,-3.872,-3.872,0,-3.8988,-3.8977,-3.8979,-3.8949,-3.8938,-3.8933,-3.89,-3.8892,-3.8872,-3.8851,-3.8841,-3.8815,-3.8793,-3.8789,-3.8769,-3.8777,-3.877,-3.8753,-3.873,-3.8758,-3.8764,-3.8767,-3.8724,-3.8723,-3.8722,-3.8722,0,0,-3.9043,-3.8998,-3.8999,-3.8985,-3.8953,-3.8944,-3.8937,-3.8916,-3.891,-3.889,-3.8883,-3.8863,-3.8846,-3.8832,-3.881,-3.8809,-3.883,-3.8791,-3.879,-3.8798,-3.8836,-3.8848,-3.8852,-3.8816,-3.8816,-3.8816,-3.8838,0,-3.9067,-3.9053,-3.9026,-3.902,-3.901,-3.8977,-3.8971,-3.8951,-3.8931,-3.8919,-3.8897,-3.8883,-3.8863,-3.8854,-3.8852,-3.8828,-3.8837,-3.8826,-3.8808,-3.8807,-3.8814,-3.8855,-3.8868,-3.889,-3.884,-3.884,-3.8841,0,-3.9092,-3.9074,-3.9068,-3.9037,-3.9032,-3.9027,-3.9006,-3.8995,-3.8971,-3.8957,-3.8942,-3.8918,-3.8909,-3.8891,-3.8878,-3.8871,-3.8862,-3.885,-3.885,-3.8845,-3.8824,-3.8851,-3.8896,-3.8898,-3.8844,-3.8844,-3.8844,0,-3.9132,-3.9107,-3.91,-3.9089,-3.9053,-3.905,-3.9035,-3.901,-3.9,-3.8982,-3.8974,-3.8955,-3.8944,-3.893,-3.8902,-3.8891,-3.8892,-3.8871,-3.8879,-3.888,-3.8879,-3.8879,-3.8922,-3.8876,-3.8876,-3.8876,-3.8876,0,-3.916,-3.9157,-3.9117,-3.9112,-3.9109,-3.9078,-3.9074,-3.9056,-3.9035,-3.9026,-3.8997,-3.899,-3.8954,-3.8942,-3.892,-3.8912,-3.8908,-3.8895,-3.8889,-3.8897,-3.8898,-3.8889,-3.8886,-3.8877,-3.8877,-3.8877,-3.8877,0,-3.9202,-3.9176,-3.9166,-3.9133,-3.9124,-3.9123,-3.9094,-3.9089,-3.9068,-3.9057,-3.9053,-3.902,-3.9005,-3.8976,-3.8953,-3.8938,-3.8934,-3.8925,-3.8942,-3.8938,-3.8948,-3.8947,-3.8985,-3.8987,-3.8942,-3.8943,-3.8943,0,-3.9222,-3.9219,-3.9186,-3.9178,-3.9164,-3.9152,-3.9141,-3.9111,-3.9101,-3.9075,-3.9072,-3.9055,-3.9039,-3.9016,-3.899,-3.8972,-3.8961,-3.8975,-3.8958,-3.8965,-3.8959,-3.8959,-3.8958,-3.8979,-3.8979,-3.898,-3.898,0,-3.9258,-3.9245,-3.9231,-3.9213,-3.9201,-3.9185,-3.9167,-3.9162,-3.9128,-3.9118,-3.9102,-3.9091,-3.9067,-3.905,-3.9028,-3.9012,-3.899,-3.8987,-3.8987,-3.8994,-3.9004,-3.8997,-3.8952,-3.8985,-3.8985,-3.8984,-3.8984,-3.8984,-3.9288,-3.9284,-3.9261,-3.9246,-3.923,-3.9214,-3.9207,-3.9186,-3.9173,-3.9151,-3.9135,-3.912,-3.9097,-3.9066,-3.9051,-3.9039,-3.9029,-3.903,-3.903,-3.9031,-3.9033,-3.9008,-3.9035,-3.9035,-3.9035,-3.9035,-3.9035,0,-3.9322,-3.9306,-3.9293,-3.9269,-3.9258,-3.924,-3.922,-3.9211,-3.9199,-3.9179,-3.9165,-3.9147,-3.913,-3.9104,-3.9085,-3.9081,-3.907,-3.9077,-3.9076,-3.9072,-3.9044,-3.9045,-3.9085,-3.9085,-3.9085,-3.9085,-3.9085,-3.9085,-3.9339,-3.9331,-3.9315,-3.9299,-3.9283,-3.9268,-3.9258,-3.9244,-3.9228,-3.9209,-3.9196,-3.9179,-3.9156,-3.9136,-3.912,-3.9112,-3.9106,-3.9116,-3.9105,-3.9079,-3.9074,-3.907,-3.907,-3.9115,-3.9115,-3.9134,-3.9134,-3.9134]},{"header":{"parameterUnit":"m.s-1","parameterCategory":1,"la1":30.2991,"la2":30.254,"lo1":-89.0895,"lo2":-89.0444,"dy":0.0017,"dx":0.0017,"nx":28,"ny":28,"refTime":"2025-03-03T09:00:00:Z","depth":0,"parameterNumber":3,"parameterNumberName":"V-component_of_WINDS"},"data":[0,0,0,0,0,0,0,0,0,0,0,0,0,0,0,0,0,0,0,0,0,0,0,0,0,0,0,0,0,0,0,0,0,0,0,0,0,0,0,0,0,0,0,0,0,0,0,0,0,0,0,0,0,0,0,0,0,0,8.6607,8.6608,0,8.6672,8.6673,8.6673,8.6645,8.6644,8.6642,8.6641,8.6702,8.6705,8.6708,0,0,0,0,0,0,0,0,0,0,0,0,0,8.6457,8.646,8.6607,8.6608,8.6609,8.6672,8.6673,8.6673,8.6646,8.6644,8.6642,8.664,8.6701,8.6704,8.6708,0,0,0,0,0,0,0,0,0,0,0,0,0,8.6522,8.6461,8.6607,8.6603,8.6603,8.6672,8.6673,8.6674,8.6646,8.6644,8.6641,8.6639,8.67,8.6704,8.6709,8.6784,0,0,8.6723,8.6725,0,0,0,0,0,0,0,0,8.6518,8.6527,8.6602,8.6603,8.6603,8.6648,8.6642,8.671,8.6647,8.6629,8.6641,8.6638,8.6686,8.6691,8.6708,8.6787,8.6789,8.6723,8.6726,8.6728,8.6729,0,0,0,0,0,0,0,8.6514,8.6525,8.6633,8.6604,8.6604,8.6597,8.6603,8.6655,8.667,8.6631,8.6629,8.6637,8.6685,8.6704,8.6709,8.679,8.6723,8.6727,8.673,8.6732,8.6938,8.6941,0,0,0,0,0,0,8.651,8.6521,8.663,8.6634,8.6554,8.6601,8.6609,8.6636,8.6669,8.6672,8.6639,8.6636,8.6697,8.6704,8.6711,8.6805,8.6728,8.6732,8.6735,8.6936,8.6939,8.6942,0,0,0,0,0,0,8.6507,8.652,8.6628,8.6577,8.6591,8.6606,8.6637,8.6639,8.6657,8.6676,8.6678,8.6656,8.6696,8.6705,8.6768,8.6807,8.6734,8.6738,8.6932,8.6937,8.694,8.6992,0,0,0,0,0,0,8.6503,8.6519,8.6548,8.6578,8.6593,8.6684,8.664,8.6642,8.6666,8.6662,8.6692,8.6694,8.6694,8.6761,8.6772,8.6812,8.6742,8.6929,8.6934,8.6939,8.6986,8.6997,8.7006,0,0,0,0,0,8.6497,8.6558,8.655,8.6563,8.663,8.6686,8.6694,8.6695,8.6669,8.6699,8.6711,8.6693,8.68,8.6767,8.678,8.6822,8.6926,8.6933,8.6939,8.6982,8.6995,8.7006,0,0,0,0,0,0,8.6529,8.6561,8.6553,8.6625,8.6654,8.6681,8.6718,8.6708,8.6743,8.6737,8.6735,8.6742,8.6808,8.682,8.6783,8.6899,8.6859,8.6868,8.6888,8.69,8.691,8.6906,8.6746,0,0,0,0,0,8.6545,8.6588,8.6614,8.6675,8.669,8.6702,8.6726,8.6725,8.6753,8.6764,8.6781,8.6808,8.6848,8.6874,8.6912,8.6988,8.6995,8.7023,8.7032,8.704,8.7049,8.7093,8.7107,8.6962,8.6962,8.6962,0,0,8.6576,8.66,8.6627,8.6682,8.6704,8.6749,8.6712,8.676,8.6794,8.6771,8.6833,8.6846,8.6876,8.6947,8.6979,8.6959,8.7091,8.7048,8.7054,8.7058,8.7101,8.7115,8.7127,8.6966,8.6965,8.6965,0,0,8.6659,8.668,8.6736,8.676,8.6794,8.6803,8.6816,8.6847,8.6856,8.6918,8.6903,8.6942,8.701,8.7034,8.7055,8.7151,8.7137,8.7163,8.7214,8.7258,8.7269,8.7279,8.7317,8.733,8.717,8.7171,8.7171,0,8.6695,8.6764,8.6765,8.6817,8.6843,8.6827,8.6884,8.6905,8.695,8.6968,8.6946,8.7035,8.7053,8.7132,8.7156,8.7172,8.7188,8.716,8.7268,8.7278,8.7287,8.7323,8.7337,8.7174,8.7173,8.7173,8.7173,0,8.6807,8.6856,8.6896,8.6944,8.6973,8.7027,8.7037,8.7067,8.7063,8.7074,8.7139,8.7162,8.7206,8.7223,8.7218,8.7302,8.729,8.7268,8.7229,8.7305,8.7338,8.7352,8.7178,8.7177,8.7176,8.7176,0,0,8.6911,8.6961,8.6976,8.7,8.7038,8.7075,8.7129,8.7175,8.7202,8.7233,8.7279,8.7339,8.7321,8.7345,8.7343,8.7381,8.746,8.7355,8.7356,8.7377,8.7557,8.7576,8.7591,8.7451,8.7453,8.7455,8.7556,0,8.6999,8.7096,8.7101,8.7189,8.7235,8.7222,8.7269,8.7298,8.731,8.735,8.7362,8.7407,8.7377,8.7392,8.7429,8.7443,8.7497,8.7435,8.7495,8.7497,8.7491,8.7608,8.7627,8.7721,8.7569,8.7571,8.7572,0,8.7115,8.7155,8.7249,8.7285,8.7304,8.7347,8.7392,8.743,8.7463,8.7469,8.7498,8.7491,8.7547,8.7505,8.7583,8.7541,8.7565,8.7576,8.758,8.7587,8.7541,8.7622,8.775,8.7766,8.7593,8.7591,8.759,0,8.7186,8.7262,8.7329,8.7349,8.7391,8.7423,8.7441,8.7472,8.7501,8.7539,8.7558,8.76,8.7625,8.7658,8.7664,8.7632,8.7743,8.77,8.7751,8.7751,8.7776,8.7775,8.7913,8.7787,8.7787,8.7786,8.7786,0,8.7286,8.7345,8.7363,8.7404,8.747,8.7475,8.7539,8.7556,8.7584,8.7629,8.7618,8.766,8.7664,8.7707,8.7711,8.7777,8.7786,8.7794,8.7795,8.7797,8.7796,8.7814,8.7809,8.779,8.7789,8.7789,8.7788,0,8.7377,8.7391,8.7464,8.75,8.7511,8.7558,8.7588,8.7629,8.764,8.7697,8.771,8.7728,8.7779,8.7788,8.7846,8.7849,8.7929,8.7921,8.7919,8.7919,8.797,8.7967,8.8127,8.815,8.8006,8.8007,8.8008,0,8.7441,8.7487,8.7529,8.756,8.7582,8.763,8.7661,8.7667,8.7699,8.7742,8.7777,8.7827,8.7868,8.795,8.7967,8.8013,8.8008,8.8062,8.8015,8.8017,8.8013,8.8012,8.8018,8.8071,8.8073,8.8074,8.8075,0,8.7555,8.7561,8.7606,8.7655,8.7693,8.7731,8.7767,8.7792,8.7803,8.7839,8.7893,8.7925,8.7987,8.8038,8.8084,8.8102,8.8092,8.809,8.8104,8.8108,8.8106,8.8112,8.7947,8.8086,8.8085,8.8084,8.8084,8.8083,8.7637,8.7679,8.7717,8.7769,8.7797,8.7832,8.7873,8.7892,8.7937,8.799,8.799,8.805,8.8084,8.8145,8.8167,8.8213,8.8196,8.8216,8.8222,8.8228,8.8235,8.8097,8.8221,8.8221,8.822,8.822,8.822,0,8.7754,8.7778,8.7826,8.7879,8.7921,8.7909,8.7949,8.7984,8.8037,8.8071,8.8113,8.8176,8.8226,8.8248,8.8298,8.8331,8.8327,8.8344,8.8343,8.8348,8.8245,8.823,8.8346,8.8346,8.8346,8.8346,8.8346,8.8346,8.7819,8.7891,8.7902,8.7988,8.8011,8.8072,8.8097,8.8129,8.8157,8.8229,8.8272,8.8287,8.8317,8.8369,8.8415,8.842,8.844,8.846,8.8463,8.8367,8.8355,8.8342,8.8328,8.8463,8.8463,8.8562,8.8563,8.8564]}]]